[[{"header":{"parameterUnit":"m.s-1","parameterCategory":2,"la1":30.2991,"la2":30.254,"lo1":-89.0895,"lo2":-89.0444,"dy":0.0017,"dx":0.0017,"nx":28,"ny":28,"refTime":"2024-10-08T21:00:00:Z","depth":"0","parameterNumber":2,"parameterNumberName":"U-component_of_CURRENTS"},"data":[0,0,0,0,0,0,0,0,0,0,0,0,0,0,0,0,0,0,0,0,0,0,0,0,0,0,0,0,0,0,0,0,0,0,0,0,0,0,0,0,0,0,0,0,0,0,0,0,0,0,0,0,0,0,0,0,0,0,0.3092,0.3092,0,0.3113,0.3113,0.3113,0.3102,0.3102,0.3101,0.3101,0.3088,0.3088,0.3088,0,0,0,0,0,0,0,0,0,0,0,0,0,0.3048,0.3049,0.3092,0.3092,0.3093,0.3113,0.3113,0.3113,0.3102,0.3102,0.3101,0.3101,0.3088,0.3088,0.3088,0,0,0,0,0,0,0,0,0,0,0,0,0,0.3065,0.3049,0.3092,0.3092,0.3093,0.3113,0.3113,0.3113,0.3102,0.3102,0.3101,0.3101,0.3088,0.3088,0.3088,0.3095,0,0,0.3088,0.3088,0,0,0,0,0,0,0,0,0.3064,0.3066,0.3092,0.3092,0.3093,0.3107,0.3093,0.3106,0.3102,0.3095,0.3101,0.3101,0.3094,0.3093,0.3094,0.3094,0.3094,0.3088,0.3088,0.3087,0.3087,0,0,0,0,0,0,0,0.3063,0.3065,0.3097,0.3092,0.3093,0.3094,0.3095,0.3095,0.3093,0.3096,0.3096,0.3103,0.3093,0.3094,0.3094,0.3094,0.3088,0.3087,0.3087,0.3087,0.3137,0.3138,0,0,0,0,0,0,0.3067,0.3064,0.3096,0.3098,0.3081,0.3095,0.3097,0.31,0.3094,0.3094,0.3104,0.3103,0.3095,0.3094,0.3093,0.3128,0.3087,0.3087,0.3087,0.3136,0.3137,0.3139,0,0,0,0,0,0,0.3066,0.3069,0.3095,0.3084,0.3088,0.3096,0.3101,0.3101,0.3106,0.3101,0.3099,0.3109,0.3094,0.3093,0.3106,0.3126,0.3087,0.3087,0.3134,0.3136,0.3138,0.318,0,0,0,0,0,0,0.3064,0.3069,0.3071,0.3084,0.3089,0.3113,0.3101,0.3102,0.3112,0.3111,0.3105,0.3103,0.3094,0.3106,0.3106,0.3125,0.3087,0.3132,0.3135,0.3138,0.3176,0.3183,0.3188,0,0,0,0,0,0.3063,0.3067,0.3071,0.3075,0.3092,0.3114,0.3116,0.3119,0.3113,0.312,0.312,0.3103,0.3123,0.3107,0.3106,0.3126,0.3131,0.3134,0.3137,0.3174,0.3182,0.3188,0,0,0,0,0,0,0.3044,0.3068,0.3071,0.3081,0.3101,0.3114,0.3121,0.3124,0.3129,0.3128,0.3117,0.3116,0.314,0.3129,0.3112,0.3151,0.3126,0.3129,0.3154,0.3161,0.3167,0.318,0.3087,0,0,0,0,0,0.3044,0.3055,0.3079,0.3086,0.3098,0.3111,0.312,0.3125,0.3134,0.3136,0.3134,0.3137,0.3152,0.3152,0.3162,0.3175,0.3188,0.319,0.3196,0.3201,0.3213,0.3256,0.3267,0.3149,0.3149,0.3149,0,0,0.3037,0.3053,0.3057,0.3084,0.3097,0.3119,0.3114,0.3133,0.3152,0.3134,0.3153,0.316,0.3163,0.3186,0.3195,0.3177,0.3243,0.3205,0.3209,0.3218,0.3261,0.3272,0.3283,0.3151,0.3151,0.3151,0,0,0.3034,0.3047,0.3058,0.3082,0.3112,0.3125,0.3134,0.3155,0.3166,0.3187,0.3189,0.3211,0.3215,0.3232,0.3239,0.3283,0.3278,0.3283,0.3314,0.3357,0.3367,0.3376,0.3409,0.3421,0.3278,0.3278,0.3278,0,0.3024,0.3044,0.3064,0.3089,0.3112,0.313,0.3154,0.3172,0.3194,0.3212,0.3198,0.3244,0.3242,0.3288,0.3303,0.3297,0.3317,0.3283,0.3365,0.3374,0.3382,0.3414,0.3427,0.3281,0.328,0.328,0.328,0,0.3038,0.3056,0.3068,0.3106,0.3133,0.3157,0.3193,0.3217,0.3229,0.3249,0.3297,0.3305,0.3334,0.3338,0.333,0.3394,0.3388,0.3372,0.3345,0.3397,0.3427,0.3439,0.3284,0.3283,0.3283,0.3282,0,0,0.2999,0.3064,0.3065,0.3088,0.3147,0.3164,0.3214,0.3262,0.3296,0.332,0.3368,0.3397,0.3408,0.3419,0.3421,0.3452,0.3524,0.3437,0.3438,0.3467,0.3618,0.3603,0.3615,0.3521,0.3524,0.3526,0.3616,0,0.3,0.304,0.308,0.3119,0.3144,0.3196,0.3239,0.3288,0.3329,0.338,0.3413,0.3454,0.3438,0.3455,0.349,0.3524,0.3558,0.3501,0.3566,0.3569,0.3547,0.3629,0.3518,0.3588,0.3628,0.3629,0.3631,0,0.2995,0.3025,0.3062,0.313,0.3147,0.3175,0.3255,0.3298,0.3386,0.3423,0.3483,0.3512,0.358,0.3546,0.3639,0.3604,0.3619,0.3634,0.3637,0.3619,0.3577,0.3543,0.3609,0.3529,0.3649,0.3648,0.3647,0,0.2945,0.3009,0.3034,0.3059,0.3139,0.3169,0.3213,0.3302,0.3365,0.3453,0.3514,0.3585,0.364,0.3675,0.3721,0.3684,0.3818,0.3766,0.3767,0.3765,0.3683,0.367,0.3676,0.3829,0.3829,0.3829,0.3829,0,0.2925,0.2943,0.3009,0.3021,0.3064,0.3131,0.3192,0.3258,0.3373,0.3443,0.3528,0.3607,0.3678,0.3762,0.3765,0.3827,0.386,0.3802,0.3801,0.3694,0.3682,0.3616,0.3564,0.3832,0.3832,0.3831,0.383,0,0.2863,0.2906,0.2939,0.3014,0.3039,0.3065,0.3184,0.3232,0.3352,0.3455,0.3492,0.366,0.3764,0.3837,0.3915,0.39,0.3839,0.3943,0.3814,0.3797,0.3691,0.3644,0.3533,0.342,0.395,0.395,0.3951,0,0.2835,0.2844,0.2916,0.2933,0.2963,0.3019,0.3061,0.3196,0.3264,0.3471,0.3517,0.3688,0.3785,0.3937,0.3952,0.3993,0.3856,0.3891,0.3795,0.37,0.3648,0.3495,0.3395,0.37,0.3698,0.3697,0.3696,0,0.2782,0.2805,0.283,0.287,0.2905,0.2952,0.3027,0.3089,0.3238,0.3351,0.3501,0.3609,0.38,0.3829,0.3923,0.3915,0.3712,0.3862,0.3796,0.3494,0.3294,0.3179,0.3624,0.3683,0.3684,0.3685,0.3686,0.3686,0.2736,0.2737,0.2769,0.2797,0.2832,0.2855,0.286,0.2963,0.3062,0.3192,0.3375,0.3485,0.3658,0.3792,0.3776,0.3699,0.3638,0.3578,0.3545,0.341,0.3249,0.3672,0.3709,0.371,0.3711,0.3712,0.3713,0,0.2668,0.2675,0.2697,0.2713,0.27,0.2757,0.281,0.2796,0.2846,0.3022,0.3144,0.3303,0.3393,0.3496,0.3533,0.341,0.3232,0.3303,0.3057,0.2983,0.3406,0.3345,0.3263,0.3263,0.3264,0.3264,0.3264,0.3264,0.2633,0.2612,0.2617,0.2566,0.2572,0.2515,0.2511,0.2524,0.2611,0.2695,0.2787,0.2931,0.3204,0.3355,0.3286,0.3196,0.2923,0.2805,0.2767,0.3082,0.3104,0.3124,0.3056,0.2915,0.2914,0.2227,0.2222,0.2218]},{"header":{"parameterUnit":"m.s-1","parameterCategory":2,"la1":30.2991,"la2":30.254,"lo1":-89.0895,"lo2":-89.0444,"dy":0.0017,"dx":0.0017,"nx":28,"ny":28,"refTime":"2024-10-08T21:00:00:Z","depth":"0","parameterNumber":3,"parameterNumberName":"V-component_of_CURRENTS"},"data":[0,0,0,0,0,0,0,0,0,0,0,0,0,0,0,0,0,0,0,0,0,0,0,0,0,0,0,0,0,0,0,0,0,0,0,0,0,0,0,0,0,0,0,0,0,0,0,0,0,0,0,0,0,0,0,0,0,0,-0.0134,-0.0135,0,-0.0194,-0.0195,-0.0196,-0.0238,-0.0238,-0.0238,-0.0238,-0.032,-0.0322,-0.0324,0,0,0,0,0,0,0,0,0,0,0,0,0,-0.0114,-0.0114,-0.0134,-0.0135,-0.0135,-0.0194,-0.0195,-0.0196,-0.0238,-0.0238,-0.0238,-0.0238,-0.0319,-0.0321,-0.0324,0,0,0,0,0,0,0,0,0,0,0,0,0,-0.0145,-0.0114,-0.0134,-0.0162,-0.0165,-0.0194,-0.0195,-0.0196,-0.0238,-0.0238,-0.0238,-0.0238,-0.0318,-0.0321,-0.0324,-0.0339,0,0,-0.0334,-0.0335,0,0,0,0,0,0,0,0,-0.0143,-0.0146,-0.0157,-0.016,-0.0163,-0.0207,-0.0218,-0.0244,-0.0237,-0.0212,-0.0238,-0.0238,-0.0283,-0.0289,-0.0302,-0.0342,-0.0346,-0.0334,-0.0336,-0.0337,-0.0338,0,0,0,0,0,0,0,-0.0141,-0.0144,-0.016,-0.0158,-0.0161,-0.0191,-0.0195,-0.0223,-0.0247,-0.0214,-0.0217,-0.022,-0.0285,-0.0299,-0.0304,-0.0347,-0.0334,-0.0336,-0.0338,-0.0339,-0.0399,-0.0399,0,0,0,0,0,0,-0.0126,-0.0141,-0.0158,-0.0162,-0.0151,-0.0191,-0.0196,-0.0194,-0.0246,-0.0254,-0.022,-0.0222,-0.0293,-0.03,-0.0307,-0.031,-0.0337,-0.034,-0.0342,-0.0399,-0.0399,-0.0399,0,0,0,0,0,0,-0.0125,-0.0127,-0.0156,-0.0152,-0.0157,-0.019,-0.0189,-0.0195,-0.0205,-0.025,-0.0259,-0.0222,-0.0294,-0.0303,-0.0324,-0.0314,-0.0341,-0.0344,-0.04,-0.0399,-0.0399,-0.0328,0,0,0,0,0,0,-0.0124,-0.0126,-0.0122,-0.015,-0.0157,-0.0161,-0.0189,-0.0196,-0.0206,-0.0209,-0.0255,-0.0263,-0.0295,-0.0319,-0.0327,-0.0319,-0.0346,-0.04,-0.04,-0.0399,-0.033,-0.0325,-0.032,0,0,0,0,0,-0.0123,-0.0109,-0.0121,-0.0123,-0.0149,-0.016,-0.0166,-0.0192,-0.0206,-0.0203,-0.0236,-0.0262,-0.0322,-0.0321,-0.0331,-0.0323,-0.04,-0.04,-0.0399,-0.0333,-0.0326,-0.032,0,0,0,0,0,0,-0.0097,-0.0113,-0.0126,-0.0118,-0.0134,-0.0166,-0.0167,-0.0185,-0.021,-0.0213,-0.0258,-0.0268,-0.0285,-0.0314,-0.0312,-0.034,-0.0366,-0.0367,-0.0312,-0.0306,-0.0301,-0.0279,-0.0349,0,0,0,0,0,-0.0088,-0.0083,-0.0106,-0.0099,-0.0104,-0.0135,-0.0144,-0.0159,-0.0184,-0.0195,-0.0227,-0.0262,-0.0291,-0.0305,-0.0336,-0.0349,-0.0376,-0.0351,-0.0346,-0.0341,-0.033,-0.0366,-0.0363,-0.0397,-0.0397,-0.0397,0,0,-0.0078,-0.0085,-0.0083,-0.0094,-0.011,-0.0104,-0.0141,-0.0145,-0.0142,-0.02,-0.0207,-0.0246,-0.0291,-0.0307,-0.0317,-0.0328,-0.0346,-0.034,-0.0336,-0.0327,-0.0365,-0.0362,-0.0359,-0.0397,-0.0397,-0.0397,0,0,-0.0044,-0.0058,-0.004,-0.0047,-0.0061,-0.0078,-0.0074,-0.0101,-0.0115,-0.0129,-0.017,-0.0198,-0.0242,-0.027,-0.0291,-0.0276,-0.0319,-0.029,-0.0244,-0.0279,-0.0277,-0.0275,-0.0301,-0.0302,-0.0286,-0.0285,-0.0285,0,-0.0029,-0.0009,-0.0037,-0.002,-0.0018,-0.006,-0.0037,-0.0058,-0.0088,-0.0094,-0.0119,-0.0183,-0.0223,-0.024,-0.0238,-0.0263,-0.0289,-0.0261,-0.0272,-0.027,-0.0269,-0.0297,-0.0299,-0.0282,-0.0282,-0.0283,-0.0283,0,0.0019,0.0033,0.0045,0.0053,0.0049,0.0062,0.0036,0.0028,0.0002,-0.0022,-0.0047,-0.0108,-0.0142,-0.0165,-0.0199,-0.021,-0.0232,-0.0261,-0.0283,-0.0261,-0.0292,-0.0296,-0.0277,-0.0278,-0.0279,-0.028,0,0,0.0064,0.0077,0.0083,0.0102,0.0091,0.0099,0.0102,0.0098,0.0109,0.0057,0.0063,-0.0004,-0.0041,-0.0067,-0.0118,-0.0153,-0.0175,-0.0198,-0.0202,-0.0216,-0.0247,-0.0246,-0.025,-0.0207,-0.0208,-0.0208,-0.0269,0,0.0114,0.0166,0.0156,0.0203,0.0228,0.0195,0.0208,0.0193,0.0166,0.0159,0.0086,0.0067,-0.0003,-0.0018,-0.0064,-0.0142,-0.0181,-0.0155,-0.0273,-0.0276,-0.0271,-0.0252,-0.022,-0.0271,-0.0273,-0.0273,-0.0274,0,0.0172,0.02,0.0256,0.0287,0.0296,0.0311,0.0326,0.0332,0.03,0.0277,0.0235,0.018,0.0126,0.0058,-0.0062,-0.0043,-0.0135,-0.0206,-0.0211,-0.0235,-0.028,-0.0295,-0.0277,-0.0423,-0.0279,-0.0279,-0.0278,0,0.0228,0.0274,0.0324,0.0333,0.0356,0.0372,0.0379,0.0367,0.0394,0.0351,0.0362,0.0274,0.0248,0.0118,-0.0023,-0.0045,-0.0157,-0.0208,-0.0296,-0.0297,-0.0304,-0.0305,-0.0433,-0.0298,-0.0298,-0.0298,-0.0297,0,0.029,0.0331,0.0353,0.0379,0.0447,0.0432,0.0492,0.048,0.0489,0.0536,0.043,0.0452,0.0261,0.0177,0.0019,-0.0131,-0.0125,-0.0278,-0.031,-0.0278,-0.0276,-0.0432,-0.0536,-0.03,-0.0299,-0.0299,-0.0299,0,0.0346,0.0358,0.0419,0.0455,0.0475,0.0519,0.058,0.0625,0.061,0.0668,0.0664,0.0596,0.0487,0.0296,0.01,-0.0052,-0.0301,-0.0276,-0.0219,-0.0243,-0.0466,-0.0566,-0.0742,-0.0804,-0.0384,-0.0385,-0.0385,0,0.0379,0.0416,0.0482,0.0529,0.0548,0.0613,0.0668,0.0682,0.0744,0.0769,0.0817,0.0734,0.0711,0.043,0.0146,-0.0119,-0.0295,-0.0286,-0.0329,-0.0463,-0.06,-0.0675,-0.0719,-0.0315,-0.0315,-0.0315,-0.0314,0,0.0444,0.0463,0.0516,0.0615,0.068,0.0767,0.0846,0.0921,0.0951,0.1009,0.108,0.1067,0.0807,0.0583,0.0208,-0.0004,-0.0385,-0.0288,-0.0447,-0.0567,-0.0638,-0.0716,-0.0291,-0.0312,-0.0312,-0.0312,-0.0312,-0.0312,0.0494,0.0544,0.0614,0.0712,0.0795,0.0909,0.0998,0.1103,0.1227,0.1339,0.1306,0.1332,0.0971,0.0484,0.018,-0.0345,-0.0374,-0.0501,-0.0614,-0.0678,-0.0733,-0.0292,-0.0337,-0.0338,-0.0338,-0.0338,-0.0339,0,0.0558,0.0616,0.0709,0.0823,0.0929,0.096,0.1117,0.1221,0.1391,0.1507,0.1585,0.1443,0.0996,0.0495,-0.0201,-0.0577,-0.0736,-0.0802,-0.091,-0.0943,-0.0561,-0.055,-0.0618,-0.0618,-0.0618,-0.0617,-0.0617,-0.0617,0.0592,0.0689,0.0737,0.0918,0.1005,0.1156,0.1253,0.1416,0.1544,0.171,0.1758,0.1761,0.1389,0.0149,-0.0692,-0.0908,-0.1178,-0.125,-0.1386,-0.1136,-0.1116,-0.1098,-0.1111,-0.1295,-0.1296,-0.169,-0.1695,-0.1698]}],[{"header":{"parameterUnit":"m.s-1","parameterCategory":2,"la1":30.2991,"la2":30.254,"lo1":-89.0895,"lo2":-89.0444,"dy":0.0017,"dx":0.0017,"nx":28,"ny":28,"refTime":"2024-10-08T21:00:00:Z","depth":"2","parameterNumber":2,"parameterNumberName":"U-component_of_CURRENTS"},"data":[0,0,0,0,0,0,0,0,0,0,0,0,0,0,0,0,0,0,0,0,0,0,0,0,0,0,0,0,0,0,0,0,0,0,0,0,0,0,0,0,0,0,0,0,0,0,0,0,0,0,0,0,0,0,0,0,0,0,0.2697,0.2698,0,0.2726,0.2726,0.2726,0.2733,0.2733,0.2733,0.2733,0.2741,0.2742,0.2742,0,0,0,0,0,0,0,0,0,0,0,0,0,0.2649,0.265,0.2697,0.2698,0.2698,0.2726,0.2726,0.2726,0.2733,0.2733,0.2733,0.2733,0.2741,0.2742,0.2742,0,0,0,0,0,0,0,0,0,0,0,0,0,0.2671,0.265,0.2697,0.2707,0.2708,0.2726,0.2726,0.2726,0.2733,0.2733,0.2733,0.2733,0.2741,0.2742,0.2742,0.2744,0,0,0.2743,0.2743,0,0,0,0,0,0,0,0,0.267,0.2673,0.2705,0.2706,0.2708,0.2728,0.2713,0.2732,0.2733,0.2721,0.2733,0.2733,0.2737,0.2737,0.274,0.2744,0.2744,0.2743,0.2743,0.2743,0.2743,0,0,0,0,0,0,0,0.2668,0.2672,0.2706,0.2705,0.2707,0.271,0.2713,0.2716,0.2726,0.2722,0.2723,0.273,0.2737,0.2739,0.274,0.2745,0.2743,0.2743,0.2743,0.2744,0.2807,0.2809,0,0,0,0,0,0,0.267,0.267,0.2706,0.2707,0.2691,0.2711,0.2714,0.272,0.2727,0.2729,0.273,0.273,0.2739,0.274,0.274,0.2788,0.2743,0.2744,0.2744,0.2806,0.2808,0.2809,0,0,0,0,0,0,0.2668,0.2672,0.2704,0.2691,0.2696,0.2712,0.2718,0.272,0.2736,0.2733,0.2734,0.2745,0.2739,0.274,0.2761,0.2787,0.2744,0.2744,0.2804,0.2806,0.2809,0.2855,0,0,0,0,0,0,0.2667,0.2672,0.2679,0.2691,0.2697,0.2727,0.2718,0.2721,0.274,0.2741,0.2746,0.2746,0.2739,0.2761,0.2762,0.2786,0.2744,0.2802,0.2805,0.2808,0.2851,0.2858,0.2864,0,0,0,0,0,0.2665,0.2673,0.2679,0.2683,0.2705,0.2728,0.2731,0.2741,0.2741,0.2753,0.276,0.2747,0.278,0.2762,0.2763,0.2788,0.2801,0.2804,0.2808,0.2848,0.2857,0.2864,0,0,0,0,0,0,0.2653,0.2676,0.2681,0.2696,0.2717,0.273,0.2743,0.275,0.2765,0.2768,0.2762,0.2763,0.2795,0.2786,0.2768,0.2817,0.279,0.2793,0.2821,0.2829,0.2835,0.2845,0.2745,0,0,0,0,0,0.2656,0.267,0.2691,0.2704,0.2717,0.2733,0.2744,0.2754,0.2768,0.2775,0.278,0.279,0.2808,0.2813,0.2825,0.2846,0.2855,0.2865,0.2871,0.2877,0.2887,0.2925,0.2936,0.282,0.282,0.282,0,0,0.2653,0.2669,0.2676,0.2703,0.2719,0.2742,0.274,0.2766,0.2787,0.2773,0.2803,0.2814,0.282,0.285,0.2863,0.2845,0.2916,0.2881,0.2885,0.2893,0.293,0.2941,0.2951,0.2823,0.2822,0.2822,0,0,0.2657,0.2674,0.2688,0.2711,0.2744,0.2757,0.2769,0.2794,0.2809,0.2838,0.2842,0.287,0.2884,0.2901,0.2909,0.2958,0.2953,0.2962,0.2997,0.3034,0.3044,0.3052,0.3083,0.3094,0.296,0.296,0.296,0,0.2653,0.2676,0.2696,0.2721,0.2744,0.2766,0.2791,0.2812,0.2841,0.2862,0.2855,0.2909,0.2911,0.2958,0.2977,0.2973,0.2991,0.2964,0.3042,0.3051,0.3059,0.3088,0.31,0.2963,0.2963,0.2962,0.2962,0,0.2671,0.2693,0.2707,0.2745,0.2773,0.28,0.2835,0.2864,0.2884,0.2905,0.296,0.2973,0.3006,0.3014,0.3009,0.3073,0.3066,0.3049,0.302,0.3073,0.3101,0.3112,0.2967,0.2966,0.2965,0.2964,0,0,0.2642,0.2706,0.2709,0.2732,0.279,0.2808,0.286,0.2908,0.2944,0.2978,0.3028,0.3065,0.3081,0.3093,0.3099,0.3128,0.3199,0.3116,0.3116,0.3142,0.3285,0.325,0.3258,0.3196,0.3198,0.32,0.3282,0,0.2647,0.2688,0.2727,0.2768,0.2792,0.2843,0.2887,0.2937,0.2981,0.3035,0.3073,0.312,0.3109,0.3133,0.3166,0.3197,0.323,0.3179,0.3233,0.3235,0.3194,0.3271,0.3021,0.307,0.3293,0.3295,0.3296,0,0.2646,0.2676,0.2715,0.278,0.2797,0.2829,0.2907,0.2952,0.3039,0.308,0.3143,0.3175,0.3245,0.3218,0.3304,0.3273,0.3289,0.3301,0.3304,0.3264,0.3221,0.3053,0.3082,0.3314,0.3313,0.3311,0.331,0,0.26,0.2664,0.2693,0.2716,0.2795,0.2828,0.2874,0.2961,0.302,0.3115,0.3173,0.3245,0.3303,0.3337,0.3379,0.3348,0.3466,0.342,0.3403,0.34,0.3194,0.317,0.3479,0.3479,0.3478,0.3478,0.3478,0,0.2583,0.2604,0.2672,0.2687,0.2732,0.2798,0.2862,0.2928,0.3038,0.3105,0.3193,0.3264,0.3339,0.3413,0.3419,0.3463,0.3503,0.3434,0.3429,0.3204,0.3181,0.339,0.3379,0.3481,0.3481,0.348,0.3479,0,0.2526,0.2571,0.2606,0.2683,0.2711,0.2741,0.2859,0.2905,0.3023,0.312,0.316,0.3313,0.3406,0.3474,0.3545,0.3524,0.3553,0.3552,0.3287,0.3251,0.3448,0.3438,0.3538,0.3538,0.3537,0.3537,0.3537,0,0.25,0.2512,0.2588,0.2607,0.2642,0.2704,0.2747,0.2878,0.2938,0.3132,0.3172,0.3328,0.3402,0.3528,0.3524,0.3552,0.3582,0.332,0.3212,0.3474,0.3459,0.345,0.3441,0.2954,0.2949,0.2945,0.2942,0,0.245,0.2478,0.2504,0.2548,0.2589,0.2636,0.2712,0.2762,0.2906,0.3005,0.313,0.3215,0.3366,0.3302,0.3372,0.3339,0.3295,0.324,0.3589,0.2987,0.2932,0.2915,0.2924,0.2906,0.291,0.2912,0.2914,0.2916,0.2407,0.241,0.2445,0.2475,0.2517,0.2538,0.254,0.2629,0.2711,0.2813,0.2973,0.3016,0.3092,0.3079,0.3006,0.2956,0.3169,0.3008,0.3016,0.3029,0.2956,0.2905,0.286,0.2863,0.2865,0.2868,0.287,0,0.2339,0.2349,0.2371,0.2389,0.2378,0.2445,0.2488,0.2462,0.2489,0.262,0.2706,0.2555,0.2558,0.262,0.2508,0.2534,0.2462,0.2414,0.2285,0.2326,0.2362,0.2248,0.1967,0.1964,0.196,0.1957,0,0,0.2305,0.2283,0.2286,0.2236,0.2249,0.2202,0.2195,0.2184,0.2234,0.2227,0.2243,0.2452,0.2566,0.2225,0.2207,0.2061,0.216,0.1982,0.272,0.2611,0.2641,0.2737,0.2615,0,0,0,0,0]},{"header":{"parameterUnit":"m.s-1","parameterCategory":2,"la1":30.2991,"la2":30.254,"lo1":-89.0895,"lo2":-89.0444,"dy":0.0017,"dx":0.0017,"nx":28,"ny":28,"refTime":"2024-10-08T21:00:00:Z","depth":"2","parameterNumber":3,"parameterNumberName":"V-component_of_CURRENTS"},"data":[0,0,0,0,0,0,0,0,0,0,0,0,0,0,0,0,0,0,0,0,0,0,0,0,0,0,0,0,0,0,0,0,0,0,0,0,0,0,0,0,0,0,0,0,0,0,0,0,0,0,0,0,0,0,0,0,0,0,0.0121,0.0121,0,0.006,0.0059,0.0059,0.0014,0.0014,0.0013,0.0013,-0.0064,-0.0066,-0.0068,0,0,0,0,0,0,0,0,0,0,0,0,0,0.0149,0.0149,0.0121,0.0121,0.012,0.006,0.0059,0.0058,0.0014,0.0014,0.0013,0.0013,-0.0064,-0.0066,-0.0068,0,0,0,0,0,0,0,0,0,0,0,0,0,0.0116,0.0149,0.0121,0.0092,0.0088,0.0061,0.0059,0.0058,0.0014,0.0014,0.0013,0.0013,-0.0063,-0.0065,-0.0068,-0.0077,0,0,-0.0076,-0.0078,0,0,0,0,0,0,0,0,0.0118,0.0115,0.0097,0.0094,0.009,0.0045,0.0041,0.0013,0.0014,0.0041,0.0013,0.0013,-0.0028,-0.0033,-0.0046,-0.0081,-0.0084,-0.0077,-0.0078,-0.008,-0.008,0,0,0,0,0,0,0,0.0121,0.0117,0.0096,0.0096,0.0092,0.0064,0.0059,0.0035,0.0008,0.0039,0.0035,0.0031,-0.003,-0.0043,-0.0048,-0.0085,-0.0077,-0.0079,-0.0081,-0.0082,-0.0135,-0.0135,0,0,0,0,0,0,0.0134,0.012,0.0098,0.0094,0.0105,0.0064,0.0059,0.0059,0.0009,0.0001,0.0031,0.0029,-0.0038,-0.0045,-0.0051,-0.0055,-0.0079,-0.0082,-0.0084,-0.0135,-0.0135,-0.0135,0,0,0,0,0,0,0.0135,0.0133,0.01,0.0106,0.01,0.0065,0.0065,0.0058,0.0046,0.0004,-0.0005,0.0027,-0.0039,-0.0047,-0.0067,-0.0059,-0.0083,-0.0086,-0.0135,-0.0135,-0.0135,-0.007,0,0,0,0,0,0,0.0136,0.0134,0.0137,0.0107,0.01,0.0092,0.0065,0.0057,0.0044,0.0041,-0.0003,-0.0011,-0.004,-0.0063,-0.007,-0.0063,-0.0088,-0.0136,-0.0135,-0.0135,-0.0072,-0.0067,-0.0063,0,0,0,0,0,0.0137,0.0149,0.0137,0.0135,0.0107,0.0093,0.0087,0.0059,0.0045,0.0045,0.0015,-0.0009,-0.0066,-0.0065,-0.0073,-0.0067,-0.0136,-0.0135,-0.0135,-0.0074,-0.0068,-0.0063,0,0,0,0,0,0,0.0163,0.0145,0.0131,0.0137,0.0119,0.0086,0.0084,0.0064,0.004,0.0036,-0.0006,-0.0015,-0.0031,-0.0058,-0.0056,-0.0082,-0.0105,-0.0106,-0.0056,-0.0051,-0.0046,-0.0026,-0.009,0,0,0,0,0,0.0171,0.0175,0.015,0.0154,0.0148,0.0116,0.0106,0.0089,0.0064,0.0053,0.0021,-0.0011,-0.0036,-0.0049,-0.0077,-0.0088,-0.0116,-0.0091,-0.0086,-0.0082,-0.0072,-0.011,-0.0108,-0.0133,-0.0133,-0.0133,0,0,0.018,0.0172,0.0172,0.0159,0.0142,0.0146,0.0109,0.0102,0.0103,0.0049,0.004,0.0004,-0.0036,-0.005,-0.0059,-0.007,-0.009,-0.0081,-0.0077,-0.007,-0.0109,-0.0107,-0.0104,-0.0133,-0.0133,-0.0133,0,0,0.0209,0.0196,0.0211,0.0202,0.0185,0.0168,0.017,0.0141,0.0126,0.0111,0.0074,0.0047,0.0006,-0.0018,-0.0036,-0.0022,-0.0065,-0.0035,0.0006,-0.0031,-0.0029,-0.0027,-0.0057,-0.0058,-0.0032,-0.0031,-0.0031,0,0.0221,0.0238,0.0212,0.0225,0.0226,0.0184,0.0203,0.0183,0.015,0.0144,0.0118,0.006,0.0024,0.0011,0.0012,-0.001,-0.0038,-0.001,-0.0024,-0.0023,-0.0023,-0.0053,-0.0056,-0.0028,-0.0029,-0.0029,-0.0029,0,0.0262,0.0274,0.0283,0.0288,0.0284,0.0293,0.0268,0.0259,0.0232,0.0209,0.0184,0.0129,0.0097,0.0077,0.0047,0.0035,0.0013,-0.0013,-0.0034,-0.0016,-0.005,-0.0054,-0.0024,-0.0025,-0.0026,-0.0026,0,0,0.0298,0.0311,0.0315,0.0332,0.0321,0.0327,0.033,0.0324,0.0333,0.0281,0.0284,0.0226,0.0189,0.0166,0.0121,0.0085,0.0059,0.0042,0.0038,0.002,-0.0019,-0.0035,-0.0042,0.0028,0.0027,0.0027,-0.0042,0,0.034,0.0385,0.0377,0.042,0.0442,0.0413,0.0425,0.041,0.0384,0.0373,0.0307,0.0288,0.0225,0.0211,0.0165,0.0088,0.0051,0.008,-0.004,-0.0043,-0.0054,-0.0046,-0.0022,-0.0081,-0.0046,-0.0047,-0.0047,0,0.0387,0.0414,0.0464,0.0497,0.0504,0.0517,0.0532,0.0537,0.0506,0.0482,0.0441,0.0389,0.0335,0.0275,0.0154,0.0175,0.0087,0.002,0.0015,-0.0024,-0.0067,-0.0096,-0.009,-0.0054,-0.0054,-0.0053,-0.0053,0,0.0435,0.0478,0.0524,0.0533,0.0557,0.0572,0.0581,0.0568,0.0593,0.055,0.0557,0.0471,0.044,0.0318,0.0178,0.0164,0.0041,0.0003,-0.0094,-0.0097,-0.0111,-0.0113,-0.0084,-0.0084,-0.0084,-0.0083,-0.0083,0,0.0488,0.0525,0.055,0.0573,0.0637,0.0627,0.0682,0.0671,0.0678,0.0718,0.062,0.0629,0.0448,0.0357,0.0211,0.0054,0.0064,-0.0082,-0.0114,-0.0088,-0.0087,-0.0093,-0.0093,-0.0086,-0.0085,-0.0085,-0.0084,0,0.0534,0.0547,0.0605,0.0641,0.0661,0.0703,0.0763,0.0805,0.079,0.0837,0.0832,0.0752,0.063,0.0448,0.0254,0.0113,-0.0047,-0.0108,-0.006,-0.0086,-0.017,-0.0166,-0.0223,-0.0224,-0.0225,-0.0226,-0.0226,0,0.0562,0.0597,0.0661,0.0705,0.0722,0.0786,0.0839,0.0857,0.0911,0.0921,0.0958,0.0858,0.0809,0.0518,0.0251,-0.0003,-0.0043,-0.0158,-0.0185,-0.0157,-0.0184,-0.0178,-0.0173,-0.018,-0.018,-0.018,-0.018,0,0.0618,0.0636,0.0685,0.0778,0.0839,0.0925,0.0999,0.1064,0.1092,0.113,0.1163,0.1124,0.0853,0.0606,0.0249,0.0067,-0.0118,-0.017,-0.0155,-0.0145,-0.0122,-0.0146,-0.0142,-0.0182,-0.0182,-0.0182,-0.0182,-0.0182,0.066,0.0705,0.0769,0.0859,0.0939,0.1045,0.1125,0.1211,0.1309,0.1372,0.1326,0.1271,0.098,0.0536,0.022,-0.0125,-0.0112,-0.0237,-0.0235,-0.0232,-0.0211,-0.0191,-0.0261,-0.0261,-0.0261,-0.0261,-0.0261,0,0.0712,0.0764,0.085,0.0955,0.1051,0.1086,0.1225,0.1306,0.1427,0.1476,0.15,0.1225,0.0942,0.0597,0.01,-0.0195,-0.0226,-0.0301,-0.0265,-0.0261,-0.0258,-0.0237,-0.0294,-0.0295,-0.0296,-0.0296,0,0,0.0739,0.0826,0.0869,0.1029,0.1109,0.1246,0.1329,0.1443,0.1512,0.1563,0.1534,0.1472,0.1054,0.0696,0.029,0.0002,-0.0069,-0.0069,-0.0011,0.0083,0.009,-0.019,-0.015,0,0,0,0,0]}],[{"header":{"parameterUnit":"m.s-1","parameterCategory":2,"la1":30.2991,"la2":30.254,"lo1":-89.0895,"lo2":-89.0444,"dy":0.0017,"dx":0.0017,"nx":28,"ny":28,"refTime":"2024-10-08T21:00:00:Z","depth":"4","parameterNumber":2,"parameterNumberName":"U-component_of_CURRENTS"},"data":[0,0,0,0,0,0,0,0,0,0,0,0,0,0,0,0,0,0,0,0,0,0,0,0,0,0,0,0,0,0,0,0,0,0,0,0,0,0,0,0,0,0,0,0,0,0,0,0,0,0,0,0,0,0,0,0,0,0,0.1739,0.174,0,0.1802,0.1803,0.1804,0.186,0.1861,0.1861,0.1862,0.1934,0.1935,0.1936,0,0,0,0,0,0,0,0,0,0,0,0,0,0.1657,0.1658,0.1739,0.174,0.1741,0.1802,0.1803,0.1804,0.186,0.1861,0.1862,0.1863,0.1933,0.1935,0.1936,0,0,0,0,0,0,0,0,0,0,0,0,0,0.1702,0.1658,0.1739,0.1777,0.1782,0.1802,0.1803,0.1804,0.1859,0.1861,0.1862,0.1863,0.1933,0.1935,0.1936,0.1922,0,0,0.1942,0.1942,0,0,0,0,0,0,0,0,0.1699,0.1705,0.1771,0.1775,0.178,0.1826,0.1801,0.1845,0.1859,0.1828,0.1862,0.1864,0.1899,0.1903,0.191,0.1926,0.1929,0.1942,0.1943,0.1943,0.1944,0,0,0,0,0,0,0,0.1696,0.1702,0.1762,0.1772,0.1777,0.1789,0.1796,0.1809,0.1854,0.1831,0.1836,0.1845,0.1901,0.1908,0.1912,0.193,0.1942,0.1943,0.1944,0.1945,0.2057,0.2059,0,0,0,0,0,0,0.1691,0.1699,0.176,0.1764,0.1744,0.1789,0.1798,0.1808,0.1854,0.1863,0.1844,0.1847,0.1905,0.191,0.1915,0.2006,0.1943,0.1945,0.1946,0.2055,0.2057,0.2059,0,0,0,0,0,0,0.1689,0.1696,0.1758,0.1734,0.1743,0.179,0.1801,0.1809,0.1856,0.1865,0.1873,0.1888,0.1906,0.1912,0.1965,0.2005,0.1946,0.1947,0.2053,0.2056,0.2058,0.212,0,0,0,0,0,0,0.1686,0.1695,0.1718,0.1734,0.1745,0.1796,0.18,0.1809,0.1858,0.1865,0.1904,0.1909,0.1907,0.1962,0.1966,0.2006,0.1949,0.205,0.2054,0.2057,0.2116,0.2125,0.2133,0,0,0,0,0,0.1683,0.1704,0.1719,0.1728,0.177,0.1798,0.1805,0.1839,0.186,0.1886,0.1917,0.191,0.1989,0.1965,0.197,0.2011,0.2048,0.2053,0.2057,0.2112,0.2123,0.2133,0,0,0,0,0,0,0.1683,0.1712,0.1729,0.176,0.179,0.1809,0.1841,0.1861,0.1905,0.1925,0.1931,0.1939,0.2001,0.1998,0.1972,0.2055,0.2019,0.2024,0.2059,0.207,0.2078,0.2082,0.195,0,0,0,0,0,0.1692,0.172,0.1745,0.1776,0.1794,0.1825,0.1849,0.1873,0.1905,0.1928,0.1954,0.1986,0.2015,0.2038,0.206,0.2101,0.2103,0.2133,0.2141,0.2148,0.2156,0.2192,0.2204,0.2074,0.2074,0.2074,0,0,0.1701,0.1723,0.174,0.1779,0.1808,0.1838,0.1844,0.1892,0.1927,0.1927,0.1996,0.2019,0.2034,0.2085,0.2112,0.2092,0.2189,0.2154,0.216,0.2163,0.2198,0.2211,0.2222,0.2077,0.2076,0.2076,0,0,0.1719,0.1755,0.1781,0.181,0.186,0.1876,0.1899,0.1941,0.1977,0.2033,0.2047,0.2096,0.2139,0.2159,0.2171,0.224,0.2234,0.2255,0.2301,0.2336,0.2347,0.2357,0.2382,0.2393,0.2258,0.2258,0.2258,0,0.1732,0.1766,0.1795,0.1827,0.1858,0.1898,0.1933,0.1968,0.2025,0.2058,0.2069,0.2156,0.2171,0.2228,0.2258,0.2259,0.2277,0.2258,0.2347,0.2356,0.2365,0.2388,0.24,0.2262,0.2261,0.2261,0.2261,0,0.1757,0.18,0.1822,0.1874,0.191,0.1952,0.1996,0.2048,0.2096,0.2126,0.221,0.2238,0.2289,0.2306,0.2305,0.238,0.2373,0.2353,0.2317,0.2381,0.2403,0.2413,0.2267,0.2266,0.2264,0.2264,0,0,0.174,0.1822,0.1835,0.1867,0.1942,0.1967,0.204,0.2102,0.2154,0.222,0.2287,0.2348,0.2376,0.2393,0.2407,0.2441,0.252,0.2433,0.2433,0.2452,0.2605,0.2449,0.2446,0.2521,0.2523,0.2525,0.2596,0,0.1755,0.1814,0.1858,0.1925,0.1957,0.2022,0.208,0.2147,0.2211,0.2284,0.2337,0.2406,0.2405,0.2446,0.2484,0.2515,0.2552,0.2503,0.2545,0.2546,0.2394,0.2454,0.2532,0.2604,0.2607,0.2609,0.261,0,0.1756,0.1799,0.1864,0.1948,0.1971,0.2022,0.2123,0.2182,0.2288,0.2341,0.2423,0.2467,0.2551,0.2532,0.2622,0.2596,0.2613,0.2625,0.2627,0.2466,0.241,0.2526,0.2629,0.2628,0.2626,0.2625,0.2624,0,0.1707,0.1798,0.1852,0.1882,0.1983,0.2038,0.2102,0.2207,0.2272,0.2391,0.2455,0.2542,0.2612,0.265,0.2694,0.2672,0.2775,0.2737,0.2611,0.2601,0.2691,0.268,0.2795,0.2794,0.2794,0.2794,0.2794,0,0.1682,0.1728,0.184,0.1866,0.1941,0.2023,0.2114,0.2191,0.2313,0.2381,0.2489,0.255,0.265,0.2719,0.2729,0.2707,0.2807,0.2629,0.261,0.2716,0.2708,0.2699,0.2687,0.2797,0.2796,0.2796,0.2795,0,0.1615,0.169,0.1756,0.1875,0.192,0.1975,0.2122,0.2175,0.2308,0.2406,0.2455,0.2596,0.2671,0.2746,0.2814,0.274,0.2736,0.2703,0.283,0.2816,0.2529,0.252,0.2555,0.255,0.2546,0.2543,0.254,0,0.1581,0.161,0.1748,0.179,0.1853,0.1952,0.2013,0.2159,0.2214,0.2402,0.2431,0.2574,0.2641,0.2618,0.2703,0.2712,0.268,0.2659,0.2572,0.2527,0.2506,0.2503,0.25,0.2533,0.2532,0.2531,0.253,0,0.1513,0.1581,0.1634,0.1725,0.1801,0.1868,0.197,0.2,0.2152,0.23,0.2345,0.2387,0.247,0.2511,0.255,0.2547,0.2656,0.2615,0.2622,0.254,0.2501,0.2484,0.2485,0.2516,0.2518,0.2519,0.252,0,0.1468,0.1488,0.1571,0.1634,0.1723,0.175,0.1818,0.1877,0.1955,0.2151,0.216,0.2303,0.2437,0.2428,0.2458,0.2451,0.2403,0.2308,0.233,0.2347,0.2245,0.2163,0.2065,0,0,0,0,0,0.1409,0.1417,0.1469,0.1524,0.1603,0.1655,0.1769,0.1836,0.1985,0.1961,0.2054,0.2112,0.2159,0.2239,0.2189,0.2372,0.2418,0.2303,0.2321,0.2437,0.2453,0.2352,0,0,0,0,0,0,0.1367,0.1414,0.1428,0.1417,0.1432,0.15,0.1565,0.1666,0.166,0.1821,0.1859,0.1984,0.2067,0.2164,0.2149,0.2173,0.2139,0.2399,0.2394,0.2427,0.2442,0.2455,0.2357,0,0,0,0,0]},{"header":{"parameterUnit":"m.s-1","parameterCategory":2,"la1":30.2991,"la2":30.254,"lo1":-89.0895,"lo2":-89.0444,"dy":0.0017,"dx":0.0017,"nx":28,"ny":28,"refTime":"2024-10-08T21:00:00:Z","depth":"4","parameterNumber":3,"parameterNumberName":"V-component_of_CURRENTS"},"data":[0,0,0,0,0,0,0,0,0,0,0,0,0,0,0,0,0,0,0,0,0,0,0,0,0,0,0,0,0,0,0,0,0,0,0,0,0,0,0,0,0,0,0,0,0,0,0,0,0,0,0,0,0,0,0,0,0,0,0.0175,0.0175,0,0.0134,0.0133,0.0132,0.0103,0.0103,0.0103,0.0103,0.0048,0.0046,0.0045,0,0,0,0,0,0,0,0,0,0,0,0,0,0.0195,0.0195,0.0175,0.0175,0.0174,0.0134,0.0133,0.0132,0.0103,0.0103,0.0103,0.0102,0.0048,0.0047,0.0045,0,0,0,0,0,0,0,0,0,0,0,0,0,0.0172,0.0195,0.0175,0.0155,0.0153,0.0134,0.0133,0.0132,0.0103,0.0103,0.0103,0.0102,0.0049,0.0047,0.0045,0.0037,0,0,0.0039,0.0038,0,0,0,0,0,0,0,0,0.0174,0.0171,0.0159,0.0157,0.0154,0.0124,0.012,0.01,0.0103,0.0121,0.0103,0.0102,0.0073,0.0069,0.006,0.0035,0.0032,0.0039,0.0037,0.0037,0.0036,0,0,0,0,0,0,0,0.0175,0.0173,0.0158,0.0158,0.0156,0.0137,0.0134,0.0116,0.0098,0.012,0.0118,0.0114,0.0071,0.0062,0.0059,0.0032,0.0039,0.0037,0.0036,0.0035,-0.0003,-0.0003,0,0,0,0,0,0,0.0184,0.0175,0.0159,0.0157,0.0165,0.0137,0.0133,0.0133,0.0098,0.0093,0.0115,0.0113,0.0066,0.0061,0.0057,0.0057,0.0037,0.0035,0.0034,-0.0004,-0.0003,-0.0003,0,0,0,0,0,0,0.0185,0.0183,0.0161,0.0165,0.0161,0.0137,0.0137,0.0133,0.0126,0.0095,0.0089,0.0114,0.0066,0.006,0.0046,0.0054,0.0034,0.0032,-0.0004,-0.0004,-0.0003,0.005,0,0,0,0,0,0,0.0186,0.0184,0.0189,0.0166,0.0161,0.0156,0.0137,0.0132,0.0125,0.0123,0.0092,0.0087,0.0065,0.005,0.0045,0.0051,0.0031,-0.0004,-0.0004,-0.0003,0.0049,0.0053,0.0056,0,0,0,0,0,0.0187,0.0196,0.0189,0.0187,0.0168,0.0156,0.0152,0.0133,0.0125,0.0126,0.0106,0.0088,0.0048,0.0048,0.0042,0.0049,-0.0004,-0.0004,-0.0003,0.0047,0.0052,0.0056,0,0,0,0,0,0,0.0206,0.0193,0.0185,0.019,0.0177,0.0152,0.0152,0.0139,0.0123,0.0123,0.0091,0.0084,0.0075,0.0054,0.0055,0.0037,0.0018,0.0017,0.0058,0.0063,0.0066,0.0082,0.0029,0,0,0,0,0,0.0214,0.0218,0.0199,0.0204,0.02,0.0177,0.0171,0.0159,0.0141,0.0134,0.0112,0.0089,0.0071,0.0062,0.0041,0.0034,0.0008,0.0033,0.0036,0.004,0.0047,0.0012,0.0013,-0.0002,-0.0002,-0.0002,0,0,0.0222,0.0216,0.0218,0.0208,0.0197,0.02,0.0173,0.0169,0.0171,0.0131,0.0128,0.0102,0.0071,0.0062,0.0056,0.0047,0.003,0.004,0.0044,0.0049,0.0012,0.0014,0.0015,-0.0002,-0.0002,-0.0002,0,0,0.0243,0.0237,0.0248,0.0242,0.0232,0.0219,0.0221,0.02,0.0191,0.0183,0.0155,0.0136,0.0108,0.0089,0.0075,0.0087,0.0051,0.0078,0.0111,0.0077,0.0078,0.0078,0.0048,0.0046,0.0081,0.0081,0.0081,0,0.0254,0.0267,0.0249,0.0259,0.0262,0.0233,0.0247,0.0234,0.0211,0.0208,0.019,0.0148,0.0121,0.0112,0.0114,0.0097,0.0071,0.0099,0.0082,0.0082,0.0082,0.0051,0.0048,0.0084,0.0083,0.0083,0.0083,0,0.0282,0.0294,0.0302,0.0307,0.0306,0.0314,0.0297,0.0293,0.0277,0.026,0.0244,0.0203,0.018,0.0164,0.0143,0.0131,0.0112,0.0091,0.0074,0.0087,0.0053,0.0049,0.0087,0.0086,0.0086,0.0085,0,0,0.0304,0.032,0.0324,0.034,0.0335,0.0341,0.0346,0.0344,0.0354,0.0317,0.0321,0.0279,0.0252,0.0235,0.0201,0.0169,0.0142,0.0135,0.0131,0.0111,0.0068,0.0052,0.0045,0.0117,0.0117,0.0116,0.0045,0,0.0334,0.037,0.0367,0.0404,0.0422,0.0406,0.0418,0.0411,0.0394,0.0388,0.0339,0.0327,0.0281,0.0272,0.0232,0.0167,0.0133,0.0164,0.0053,0.005,0.0039,0.004,0.0115,0.0042,0.0041,0.004,0.0039,0,0.0364,0.0386,0.0429,0.0462,0.047,0.0486,0.0504,0.0511,0.0491,0.0474,0.0444,0.0406,0.0362,0.0317,0.0211,0.0232,0.0158,0.01,0.0095,0.006,0.0026,0.0024,0.0031,0.0031,0.0032,0.0032,0.0033,0,0.0392,0.0432,0.0472,0.0482,0.0509,0.0528,0.0543,0.0539,0.056,0.0531,0.0535,0.0466,0.044,0.0339,0.0221,0.0215,0.0096,0.0072,-0.0013,-0.0016,-0.0003,-0.0003,-0.0005,-0.0005,-0.0005,-0.0005,-0.0005,0,0.0423,0.0457,0.0492,0.0513,0.0571,0.0572,0.0624,0.062,0.0629,0.0657,0.0588,0.0584,0.0443,0.0361,0.0242,0.0103,0.0109,-0.0005,-0.0035,0.0021,0.0024,-0.0007,-0.0006,-0.0008,-0.0007,-0.0007,-0.0006,0,0.0445,0.0465,0.0518,0.0562,0.0586,0.0626,0.069,0.0724,0.0719,0.0751,0.0749,0.0675,0.0561,0.0416,0.0248,0.014,0.0004,-0.0049,0.0029,0.0005,-0.0091,-0.0087,-0.0148,-0.0149,-0.015,-0.0151,-0.0151,0,0.0458,0.0488,0.056,0.0601,0.0626,0.069,0.074,0.0765,0.0802,0.0806,0.0823,0.0734,0.0662,0.0422,0.0253,0.0024,-0.0015,-0.0091,-0.01,-0.0083,-0.0106,-0.01,-0.0094,-0.0153,-0.0153,-0.0153,-0.0154,0,0.0484,0.0511,0.0556,0.0643,0.0705,0.0782,0.0849,0.0884,0.0911,0.0915,0.0883,0.0759,0.0627,0.0429,0.025,0.0083,-0.0045,-0.0102,-0.0102,-0.011,-0.009,-0.011,-0.0104,-0.0157,-0.0157,-0.0156,-0.0156,0,0.0505,0.054,0.0603,0.068,0.0764,0.084,0.0878,0.092,0.0957,0.0954,0.0941,0.0794,0.071,0.0459,0.0295,0.0128,0.0077,0.001,0.0004,0.0006,0.0063,0.0112,0.0086,0,0,0,0,0,0.0521,0.0563,0.0635,0.0718,0.0802,0.0855,0.0938,0.0966,0.0995,0.0982,0.0964,0.0839,0.0592,0.0489,0.032,0.0262,0.004,0.0055,-0.0042,-0.0176,-0.0172,-0.0133,0,0,0,0,0,0,0.0529,0.0596,0.0632,0.0736,0.0799,0.0897,0.0952,0.0976,0.0968,0.0968,0.0847,0.0784,0.0552,0.0693,0.0314,0.0263,0.0173,-0.0055,-0.006,-0.0178,-0.0174,-0.0171,-0.013,0,0,0,0,0]}]]